This demonstration page uses our WeatherBlox Daily Observations layout. Learn more.

Hourly Observations for March 20, 2019

Temp ( °F °C ) Dew Point ( °F °C ) Humidity (%) Winds ( mph kmh ) Pressure ( in mb ) Visibility ( mi km ) Precip ( " mm )
12:15 am 00:15 Cloudy 36 2.2 36 2 99 99 NNW 9 15 30.32 1027 10 16.0934 0 0
12:35 am 00:35 Cloudy 35 1.8 35 1.6 99 99 NNW 8 13 30.34 1027 10 16.0934 0 0
12:55 am 00:55 Cloudy 35 1.5 34 1.2 98 98 NNW 8 13 30.33 1027 10 16.0934 0 0
1:15 am 01:15 Cloudy 34 1 33 0.7 98 98 NW 8 13 30.33 1027 10 16.0934 0 0
1:35 am 01:35 Mostly Cloudy 33 0.4 32 0.2 99 99 NW 7 11 30.33 1027 7 11.26538 0 0
1:55 am 01:55 Clear 33 0.3 32 0.2 99 99 NW 7 11 30.33 1027 10 16.0934 0 0
2:15 am 02:15 Clear 32 0.1 32 0 99 99 NW 3 6 30.32 1027 10 16.0934 0 0
2:35 am 02:35 Clear 32 0 32 0 100 100 NW 3 6 30.33 1027 7 11.26538 0 0
2:55 am 02:55 Clear 32 -0.1 32 -0.2 99 99 WNW 5 7 30.33 1027 7 11.26538 0 0
3:15 am 03:15 Clear 32 0 32 0 100 100 WNW 7 11 30.33 1027 7 11.26538 0 0
3:35 am 03:35 Clear 32 -0.1 31 -0.3 99 99 W 6 9 30.33 1027 7 11.26538 0 0
3:55 am 03:55 Clear 32 -0.2 31 -0.4 99 99 WNW 5 7 30.32 1027 7 11.26538 0 0
4:15 am 04:15 Clear 31 -0.3 31 -0.5 99 99 WNW 5 7 30.31 1026 10 16.0934 0 0
4:35 am 04:35 Clear 31 -0.3 31 -0.6 98 98 WNW 6 9 30.3 1026 10 16.0934 0 0
4:55 am 04:55 Clear 31 -0.5 31 -0.8 98 98 WNW 5 7 30.3 1026 10 16.0934 0 0
5:15 am 05:15 Clear 31 -0.3 31 -0.7 97 97 WNW 6 9 30.29 1026 10 16.0934 0 0
5:35 am 05:35 Clear 31 -0.5 30 -1 96 96 W 7 11 30.29 1026 10 16.0934 0 0
5:55 am 05:55 Clear 31 -0.6 30 -1.1 96 96 W 7 11 30.29 1026 10 16.0934 0 0
6:15 am 06:15 Clear 30 -1 29 -1.5 96 96 W 6 9 30.3 1026 10 16.0934 0 0
6:35 am 06:35 Clear 31 -0.8 29 -1.4 96 96 W 7 11 30.3 1026 10 16.0934 0 0
6:55 am 06:55 Clear 30 -1 29 -1.5 96 96 W 7 11 30.31 1026 10 16.0934 0 0
7:15 am 07:15 Clear 30 -1.2 29 -1.6 97 97 W 7 11 30.31 1026 10 16.0934 0 0
7:35 am 07:35 Clear 30 -1.1 29 -1.5 97 97 W 8 13 30.31 1026 10 16.0934 0 0
7:55 am 07:55 Sunny 31 -0.7 30 -1.2 96 96 W 9 15 30.29 1026 10 16.0934 0 0
8:15 am 08:15 Sunny 32 0 30 -1 93 93 W 9 15 30.29 1026 10 16.0934 0 0
8:30 am 08:30 Sunny 32 0.1 30 -1 92 92 W 8 13 30.28 1026 10 16.0934 0 0
8:55 am 08:55 Sunny 34 0.9 31 -0.8 89 89 W 7 11 30.28 1025 10 16.0934 0 0
9:15 am 09:15 Sunny 34 1.3 31 -0.6 87 87 W 9 15 30.27 1025 10 16.0934 0 0
10:15 am 10:15 Sunny 38 3.2 32 0.1 80 80 W 12 19 30.24 1024 10 16.0934 0 0
10:35 am 10:35 Sunny 40 4.2 33 0.8 79 79 WNW 12 19 30.23 1024 10 16.0934 0 0
11:55 am 11:55 Sunny 45 7.1 35 1.5 68 68 WNW 10 17 30.2 1023 10 16.0934 0 0
12:15 pm 12:15 Sunny 47 8.1 36 2.2 67 67 WNW 12 19 30.18 1022 10 16.0934 0 0
12:35 pm 12:35 Sunny 48 8.7 36 2 63 63 WNW 10 17 30.17 1022 10 16.0934 0 0
12:55 pm 12:55 Sunny 50 9.8 35 1.7 57 57 NW 13 20 30.15 1021 10 16.0934 0 0
1:15 pm 13:15 Sunny 51 10.8 35 1.6 53 53 NW 10 17 30.14 1021 10 16.0934 0 0
1:35 pm 13:35 Sunny 52 11.1 35 1.5 52 52 WNW 12 19 30.13 1020 10 16.0934 0 0
1:55 pm 13:55 Sunny 53 11.5 36 2 52 52 WNW 14 22 30.12 1020 10 16.0934 0 0
2:15 pm 14:15 Sunny 53 11.8 35 1.9 51 51 W 13 20 30.11 1020 10 16.0934 0 0
2:35 pm 14:35 Sunny 55 12.5 36 2.2 50 50 W 15 24 30.1 1019 10 16.0934 0 0
2:55 pm 14:55 Sunny 55 12.9 36 2 48 48 WNW 12 19 30.08 1019 10 16.0934 0 0
3:15 pm 15:15 Sunny 56 13.4 35 1.9 46 46 WNW 13 20 30.06 1018 10 16.0934 0 0
3:35 pm 15:35 Sunny 58 14.3 36 2.3 45 45 NW 17 28 30.06 1018 10 16.0934 0 0
3:55 pm 15:55 Sunny 60 15.3 36 2.1 41 41 NNW 12 19 30.04 1017 10 16.0934 0 0
4:15 pm 16:15 Sunny 60 15.5 35 1.7 40 40 NW 13 20 30.03 1017 10 16.0934 0 0
4:35 pm 16:35 Sunny 60 15.3 35 1.4 39 39 NNW 13 20 30.05 1017 10 16.0934 0 0
4:55 pm 16:55 Sunny 60 15.3 37 2.5 42 42 N 12 19 30.05 1017 10 16.0934 0 0
5:15 pm 17:15 Sunny 59 15 34 1 39 39 N 15 24 30.05 1018 10 16.0934 0 0
5:35 pm 17:35 Sunny 58 14.5 37 2.9 46 46 N 16 26 30.06 1018 10 16.0934 0 0
5:55 pm 17:55 Sunny 57 14.1 36 2.4 45 45 N 17 28 30.08 1019 10 16.0934 0 0
6:15 pm 18:15 Sunny 57 13.7 37 3 49 49 N 16 26 30.08 1019 10 16.0934 0 0
6:35 pm 18:35 Sunny 55 13 39 3.9 54 54 N 14 22 30.1 1019 10 16.0934 0 0
6:55 pm 18:55 Sunny 54 12.1 39 3.7 57 57 N 12 19 30.11 1020 10 16.0934 0 0
7:15 pm 19:15 Sunny 52 11.1 38 3.6 60 60 N 10 17 30.12 1020 10 16.0934 0 0
7:35 pm 19:35 Sunny 51 10.6 39 3.7 63 63 N 7 11 30.14 1021 10 16.0934 0 0
7:55 pm 19:55 Clear 48 8.9 38 3.6 70 70 N 6 9 30.16 1021 10 16.0934 0 0
8:15 pm 20:15 Clear 45 7.1 37 3 75 75 N 9 15 30.18 1022 10 16.0934 0 0
8:35 pm 20:35 Clear 45 7.1 37 2.6 73 73 N 10 17 30.19 1022 10 16.0934 0 0
8:55 pm 20:55 Clear 42 5.4 37 2.5 82 82 N 8 13 30.21 1023 10 16.0934 0 0
9:15 pm 21:15 Clear 43 6.1 36 2.3 77 77 NNE 6 9 30.22 1023 10 16.0934 0 0
9:35 pm 21:35 Clear 38 3.6 34 1.3 85 85 N 8 13 30.25 1024 10 16.0934 0 0
9:55 pm 21:55 Clear 38 3.6 34 1.2 85 85 N 9 15 30.26 1025 10 16.0934 0 0
10:15 pm 22:15 Clear 37 3 35 1.6 91 91 NNE 10 17 30.27 1025 10 16.0934 0 0
10:35 pm 22:35 Clear 36 2.1 34 1 93 93 N 8 13 30.28 1025 10 16.0934 0 0
10:55 pm 22:55 Clear 38 3.5 35 1.7 88 88 N 7 11 30.27 1025 10 16.0934 0 0
11:15 pm 23:15 Clear 38 3.2 34 1.1 86 86 N 3 6 30.28 1025 10 16.0934 0 0
11:35 pm 23:35 Clear 37 2.5 34 1.2 91 91 N 7 11 30.28 1025 10 16.0934 0 0
11:55 pm 23:55 Clear 38 3.2 34 1.1 86 86 N 9 15 30.29 1026 10 16.0934 0 0

Powered by AerisWeather